FW7745 Weather Reports


time (UTC)temp
F
wind
direction
speed
knots
gust
knots
rain 1hr
in
rain 24hr
in
rain mn
in
humidity
%
barometer
mb
20260502151843 56 312 2.6 2.6 0.00 0.00 0.00 51 1016.7
20260502151340 56 359 2.6 2.6 0.00 0.00 0.00 52 1016.8
20260502150837 55 13 5.2 7.0 0.00 0.00 0.00 51 1016.6
20260502150334 57 324 2.6 2.6 0.00 0.00 0.00 51 1016.6
20260502130722 51 13 0.9 2.6 0.00 0.00 0.00 64 1016.7
20260502130220 51 342 0.9 1.7 0.00 0.00 0.00 65 1016.4
20260502123706 50 1 3.5 5.2 0.00 0.00 0.00 67 1016.5
20260502123202 50 317 3.5 4.3 0.00 0.00 0.00 67 1016.7
20260502122658 50 20 4.3 5.2 0.00 0.00 0.00 67 1016.5
20260502122155 50 266 2.6 2.6 0.00 0.00 0.00 67 1016.5
20260502121653 50 272 2.6 2.6 0.00 0.00 0.00 67 1016.5
20260502121151 50 357 2.6 4.3 0.00 0.00 0.00 68 1016.5
20260502120647 50 357 4.3 6.1 0.00 0.00 0.00 68 1016.7
20260502120144 50 344 2.6 2.6 0.00 0.00 0.00 68 1016.5
20260502115642 50 281 0.9 0.9 0.00 0.00 0.00 68 1016.5
20260502115137 50 325 3.5 6.1 0.00 0.00 0.00 67 1016.4
20260502114633 50 312 2.6 2.6 0.00 0.00 0.00 67 1016.4
20260502114131 50 314 1.7 2.6 0.00 0.00 0.00 67 1016.5
20260502113628 50 336 2.6 5.2 0.00 0.00 0.00 67 1016.4
20260502113127 50 295 2.6 4.3 0.00 0.00 0.00 67 1016.4
20260502112624 50 352 1.7 1.7 0.00 0.00 0.00 67 1016.6
20260502112121 50 298 4.3 6.1 0.00 0.00 0.00 66 1016.8
20260502111619 50 263 4.3 6.1 0.00 0.00 0.00 66 1016.5
20260502111116 50 356 2.6 5.2 0.00 0.00 0.00 65 1016.4
20260502110614 50 347 2.6 4.3 0.00 0.00 0.00 65 1016.3
20260502110111 50 264 5.2 7.8 0.00 0.00 0.00 64 1016.6
20260502105608 50 7 1.7 1.7 0.00 0.00 0.00 63 1016.1
20260502105106 50 321 4.3 7.8 0.00 0.00 0.00 63 1016.2
20260502104603 50 15 4.3 6.1 0.00 0.00 0.00 64 1016.2
20260502104100 50 23 0.9 0.9 0.00 0.00 0.00 65 1015.9
20260502103558 51 34 3.5 5.2 0.00 0.00 0.00 66 1016.0
20260502103056 51 10 6.1 7.8 0.00 0.00 0.00 66 1015.9
20260502102551 51 326 0.9 1.7 0.00 0.00 0.00 66 1015.9
20260502102049 51 294 2.6 4.3 0.00 0.00 0.00 66 1015.8
20260502101547 51 311 3.5 5.2 0.00 0.00 0.00 66 1015.7
20260502101045 51 300 2.6 2.6 0.00 0.00 0.00 65 1015.6
20260502100543 51 40 4.3 5.2 0.00 0.00 0.00 65 1015.9
20260502091518 53 320 1.7 2.6 0.00 0.00 0.00 65 1014.8
20260502091015 53 352 2.6 4.3 0.00 0.00 0.00 64 1015.1
20260502090512 53 292 3.5 5.2 0.00 0.00 0.00 64 1014.8
20260502071406 56 310 0.9 0.9 0.00 0.00 0.00 67 1014.7
20260502070905 56 308 0.9 0.9 0.00 0.00 0.00 67 1014.8
20260502070402 56 51 1.7 2.6 0.00 0.00 0.00 66 1014.6
20260502065901 56 0 3.5 5.2 0.00 0.00 0.00 66 1014.4
20260502065358 56 321 0.0 0.9 0.00 0.00 0.00 66 1014.7
20260502064856 56 274 5.2 6.1 0.00 0.00 0.00 66 1014.5
20260502064354 56 305 4.3 7.0 0.00 0.00 0.00 66 1014.5
20260502063850 56 282 2.6 4.3 0.00 0.00 0.00 66 1014.4
20260502063349 56 276 0.9 1.7 0.00 0.00 0.00 65 1014.3
20260502062846 56 282 2.6 4.3 0.00 0.00 0.00 65 1014.2
20260502062343 57 312 2.6 4.3 0.00 0.00 0.00 64 1014.3
20260502061842 57 327 3.5 5.2 0.00 0.00 0.00 64 1014.7
20260502061339 57 320 3.5 4.3 0.00 0.00 0.00 65 1014.6
20260502060835 57 331 3.5 5.2 0.00 0.00 0.00 64 1014.7
20260502060330 57 350 4.3 7.8 0.00 0.00 0.00 65 1014.7
20260502055828 57 357 4.3 5.2 0.00 0.00 0.00 65 1014.7
20260502055326 57 334 4.3 6.1 0.00 0.00 0.00 66 1015.1
20260502054825 57 344 2.6 4.3 0.00 0.00 0.00 67 1014.7
20260502054322 58 328 0.9 2.6 0.00 0.00 0.00 66 1014.9
20260502053820 57 325 1.7 2.6 0.00 0.00 0.00 66 1014.7
20260502053316 57 4 0.9 1.7 0.00 0.00 0.00 67 1014.9
20260502052814 58 6 2.6 5.2 0.00 0.00 0.00 68 1014.6
20260502052312 58 337 4.3 7.8 0.00 0.00 0.00 68 1014.8
20260502051810 57 61 0.0 0.9 0.00 0.00 0.00 70 1014.8
20260502051309 57 321 0.9 0.9 0.00 0.00 0.00 73 1014.8
20260502050804 57 346 0.9 1.7 0.00 0.00 0.00 77 1014.9
20260502050300 57 248 0.0 0.0 0.00 0.00 0.00 79 1014.8
20260502045758 57 236 0.9 0.9 0.00 0.00 0.00 79 1014.8
20260502045254 57 177 2.6 4.3 0.00 0.00 0.00 78 1014.9
20260502044751 57 211 2.6 2.6 0.00 0.00 0.00 75 1014.8
20260502044247 57 253 0.0 0.9 0.00 0.00 0.00 76 1015.0
20260502043745 57 198 0.9 0.9 0.00 0.00 0.00 75 1014.9
20260502043242 57 278 0.9 0.9 0.00 0.00 0.00 75 1015.0
20260502042742 58 224 1.7 1.7 0.00 0.00 0.00 74 1014.9
20260502042239 58 160 1.7 1.7 0.00 0.00 0.00 73 1014.8
20260502041737 58 174 2.6 5.2 0.00 0.00 0.00 73 1014.8
20260502041234 58 201 2.6 4.3 0.00 0.00 0.00 72 1014.7
20260502040731 58 202 0.0 0.9 0.00 0.00 0.00 72 1014.8
20260502040228 58 224 1.7 1.7 0.00 0.00 0.00 70 1014.6
20260502035724 58 221 0.9 0.9 0.00 0.00 0.00 69 1014.5
20260502035221 58 339 0.0 0.9 0.00 0.00 0.00 67 1014.5
20260502034718 58 277 1.7 1.7 0.00 0.00 0.00 67 1014.5
20260502034216 58 205 0.9 0.9 0.00 0.00 0.00 66 1014.1
20260502033714 58 188 1.7 2.6 0.00 0.00 0.00 66 1014.1
20260502033212 58 138 1.7 1.7 0.00 0.00 0.00 66 1014.0
20260502032708 58 164 1.7 2.6 0.00 0.00 0.00 66 1014.0
20260502032204 58 223 2.6 4.3 0.00 0.00 0.00 66 1013.9
20260502031702 58 227 1.7 1.7 0.00 0.00 0.00 66 1013.6
20260502031200 58 156 4.3 6.1 0.00 0.00 0.00 66 1013.9
20260502030658 58 143 3.5 4.3 0.00 0.00 0.00 65 1013.8
20260502030156 58 220 0.9 0.9 0.00 0.00 0.00 65 1013.6
20260502025653 58 199 0.9 1.7 0.00 0.00 0.00 65 1013.4
20260502025151 58 136 0.9 1.7 0.00 0.00 0.00 65 1013.6
20260502024648 58 127 2.6 2.6 0.00 0.00 0.00 64 1013.6
20260502024146 58 181 3.5 4.3 0.00 0.00 0.00 64 1013.4
20260502023644 58 175 0.9 4.3 0.00 0.00 0.00 64 1013.7
20260502023141 58 194 1.7 2.6 0.00 0.00 0.00 63 1013.7
20260502022638 58 160 2.6 4.3 0.00 0.00 0.00 63 1013.9
20260502022135 58 209 1.7 2.6 0.00 0.00 0.00 63 1013.7
20260502021632 58 136 0.9 1.7 0.00 0.00 0.00 62 1013.7
20260502021129 59 125 1.7 1.7 0.00 0.00 0.00 62 1013.7
20260502020627 59 159 1.7 1.7 0.00 0.00 0.00 61 1013.8
20260502020123 59 166 0.0 0.0 0.00 0.00 0.00 61 1013.7
20260502015621 59 193 0.9 0.9 0.00 0.00 0.00 60 1013.7
20260502015117 59 215 2.6 2.6 0.00 0.00 0.00 60 1013.7
20260502014615 59 145 2.6 2.6 0.00 0.00 0.00 59 1013.6
20260502014112 60 53 0.0 0.9 0.00 0.00 0.00 59 1013.5
20260502013608 60 171 0.9 0.9 0.00 0.00 0.00 58 1013.4
20260502013103 60 108 3.5 4.3 0.00 0.00 0.00 57 1013.5
20260502012601 60 155 2.6 4.3 0.00 0.00 0.00 56 1013.2
20260502012059 60 161 2.6 2.6 0.00 0.00 0.00 56 1013.1
20260502011555 60 150 3.5 5.2 0.00 0.00 0.00 55 1012.8
20260502011051 61 138 5.2 7.0 0.00 0.00 0.00 54 1012.8
20260502010549 61 164 1.7 1.7 0.00 0.00 0.00 53 1012.9
20260502010045 61 142 2.6 4.3 0.00 0.00 0.00 53 1012.5
20260502005543 61 149 5.2 7.0 0.00 0.00 0.00 52 1012.6
20260502005041 61 129 4.3 6.1 0.00 0.00 0.00 51 1012.5
20260502004536 62 131 3.5 5.2 0.00 0.00 0.00 51 1012.4
20260502004033 62 123 5.2 6.1 0.00 0.00 0.00 50 1012.3
20260502003531 63 139 3.5 4.3 0.00 0.00 0.00 48 1012.3
20260502003027 63 125 5.2 6.1 0.00 0.00 0.00 47 1012.0
20260502002524 63 143 3.5 4.3 0.00 0.00 0.00 47 1012.1
20260502002021 63 237 3.5 6.1 0.00 0.00 0.00 46 1012.2
20260502001519 64 307 0.9 1.7 0.00 0.00 0.00 45 1012.6
20260502001016 64 172 2.6 4.3 0.00 0.00 0.00 45 1012.4
20260502000514 64 109 1.7 1.7 0.00 0.00 0.00 45 1012.6
20260502000011 64 239 3.5 4.3 0.00 0.00 0.00 45 1012.4
20260501235507 64 142 0.9 1.7 0.00 0.00 0.00 45 1012.3
20260501235002 64 233 0.0 0.9 0.00 0.00 0.00 45 1012.2
20260501234458 64 165 3.5 5.2 0.00 0.00 0.00 44 1012.0
20260501233957 64 171 1.7 4.3 0.00 0.00 0.00 44 1012.3
20260501233455 65 229 0.9 1.7 0.00 0.00 0.00 43 1012.1
20260501232950 65 88 2.6 2.6 0.00 0.00 0.00 43 1012.0
20260501232447 65 169 0.9 0.9 0.00 0.00 0.00 43 1012.0
20260501231944 66 157 2.6 2.6 0.00 0.00 0.00 42 1011.8
20260501231443 66 83 4.3 6.1 0.00 0.00 0.00 41 1012.0
20260501230941 66 350 1.7 1.7 0.00 0.00 0.00 41 1012.0
20260501230439 66 182 1.7 4.3 0.00 0.00 0.00 41 1011.8
20260501225936 67 167 3.5 7.8 0.00 0.00 0.00 40 1012.1
20260501225434 67 217 4.3 6.1 0.00 0.00 0.00 39 1012.0
20260501224930 67 200 6.1 7.0 0.00 0.00 0.00 39 1012.2
20260501224427 67 185 6.1 7.8 0.00 0.00 0.00 39 1012.2
20260501223924 67 197 4.3 7.0 0.00 0.00 0.00 40 1012.3
20260501223420 68 245 2.6 4.3 0.00 0.00 0.00 39 1012.5
20260501222916 68 199 6.1 8.7 0.00 0.00 0.00 38 1012.4
20260501222414 67 184 5.2 7.0 0.00 0.00 0.00 39 1012.5
20260501221910 67 240 0.9 0.9 0.00 0.00 0.00 39 1012.2
20260501221407 68 199 7.0 7.8 0.00 0.00 0.00 38 1012.4
20260501220905 68 166 6.1 7.8 0.00 0.00 0.00 39 1012.4
20260501220402 68 210 4.3 7.0 0.00 0.00 0.00 38 1012.7
20260501215858 67 214 4.3 7.0 0.00 0.00 0.00 39 1012.7
20260501215355 68 225 2.6 4.3 0.00 0.00 0.00 38 1012.5
20260501214851 68 321 4.3 7.0 0.00 0.00 0.00 39 1012.7
20260501214346 67 173 6.1 7.8 0.00 0.00 0.00 39 1012.5
20260501213842 69 200 4.3 5.2 0.00 0.00 0.00 38 1012.5
20260501213339 67 134 3.5 5.2 0.00 0.00 0.00 39 1012.7
20260501212834 68 266 1.7 1.7 0.00 0.00 0.00 39 1012.7
20260501212331 67 157 4.3 6.1 0.00 0.00 0.00 40 1012.8
20260501211828 67 138 2.6 5.2 0.00 0.00 0.00 40 1012.6
20260501211326 67 93 1.7 1.7 0.00 0.00 0.00 40 1012.6
20260501210823 66 187 2.6 2.6 0.00 0.00 0.00 40 1012.6
20260501210320 67 147 4.3 6.1 0.00 0.00 0.00 39 1012.7
20260501205816 67 180 4.3 7.0 0.00 0.00 0.00 40 1012.4
20260501205313 68 113 2.6 4.3 0.00 0.00 0.00 40 1012.5
20260501204810 68 210 5.2 7.0 0.00 0.00 0.00 40 1012.6
20260501204306 68 260 5.2 6.1 0.00 0.00 0.00 40 1012.9
20260501203802 67 161 4.3 6.1 0.00 0.00 0.00 41 1013.0
20260501203300 66 23 0.9 0.9 0.00 0.00 0.00 41 1013.2
20260501202757 66 143 4.3 5.2 0.00 0.00 0.00 41 1013.2
20260501202254 67 139 0.9 1.7 0.00 0.00 0.00 40 1013.4
20260501201750 67 158 6.1 7.0 0.00 0.00 0.00 40 1013.0
20260501201247 67 200 2.6 5.2 0.00 0.00 0.00 40 1013.2
20260501200744 67 167 3.5 4.3 0.00 0.00 0.00 39 1013.4
20260501200241 69 170 2.6 7.0 0.00 0.00 0.00 37 1013.7
20260501195739 68 174 7.0 7.8 0.00 0.00 0.00 36 1013.9
20260501195234 68 161 1.7 4.3 0.00 0.00 0.00 36 1013.8
20260501194731 68 164 6.1 8.7 0.00 0.00 0.00 36 1014.0
20260501194226 66 258 4.3 6.1 0.00 0.00 0.00 38 1013.5
20260501193723 67 212 7.8 9.6 0.00 0.00 0.00 38 1014.2
20260501193222 66 249 2.6 4.3 0.00 0.00 0.00 39 1014.1
20260501192719 67 189 7.8 11.3 0.00 0.00 0.00 38 1014.3
20260501192216 67 284 4.3 5.2 0.00 0.00 0.00 39 1014.3
20260501191713 65 198 4.3 6.1 0.00 0.00 0.00 41 1014.4
20260501191210 66 204 3.5 6.1 0.00 0.00 0.00 39 1014.3
20260501190706 65 238 3.5 4.3 0.00 0.00 0.00 40 1014.4
20260501190202 66 226 9.6 13.9 0.00 0.00 0.00 41 1014.5
20260501185658 66 244 5.2 7.0 0.00 0.00 0.00 41 1014.7
20260501185154 67 181 3.5 4.3 0.00 0.00 0.00 40 1014.5
20260501184650 65 186 5.2 7.0 0.00 0.00 0.00 42 1014.7
20260501184145 65 176 5.2 6.1 0.00 0.00 0.00 41 1014.8
20260501183642 65 199 7.8 8.7 0.00 0.00 0.00 42 1014.8
20260501183138 66 232 4.3 7.8 0.00 0.00 0.00 40 1015.0
20260501182635 66 276 2.6 4.3 0.00 0.00 0.00 40 1015.1
20260501182132 65 181 1.7 2.6 0.00 0.00 0.00 40 1015.0
20260501181629 64 50 0.0 0.9 0.00 0.00 0.00 40 1015.2
20260501181125 65 278 2.6 2.6 0.00 0.00 0.00 40 1015.1
20260501180624 64 126 5.2 8.7 0.00 0.00 0.00 39 1015.0
20260501180120 65 260 2.6 2.6 0.00 0.00 0.00 37 1015.1
20260501175617 65 159 2.6 4.3 0.00 0.00 0.00 38 1015.1
20260501175114 64 219 4.3 5.2 0.00 0.00 0.00 39 1015.4
20260501174610 65 181 4.3 5.2 0.00 0.00 0.00 37 1015.1
20260501174108 64 250 3.5 5.2 0.00 0.00 0.00 38 1015.4
20260501173605 64 219 5.2 6.1 0.00 0.00 0.00 39 1015.6
20260501173102 64 241 3.5 7.0 0.00 0.00 0.00 38 1015.5
20260501172557 65 106 4.3 7.0 0.00 0.00 0.00 38 1015.5
20260501172053 63 248 4.3 7.8 0.00 0.00 0.00 41 1015.7
20260501171549 63 265 0.9 0.9 0.00 0.00 0.00 40 1015.9
20260501171046 62 226 0.9 1.7 0.00 0.00 0.00 42 1015.7
20260501170543 62 239 2.6 2.6 0.00 0.00 0.00 41 1016.0
20260501170040 63 271 4.3 6.1 0.00 0.00 0.00 41 1015.9
20260501165538 62 315 1.7 2.6 0.00 0.00 0.00 42 1015.8
20260501165035 63 236 2.6 5.2 0.00 0.00 0.00 42 1015.8
20260501164533 63 276 3.5 4.3 0.00 0.00 0.00 43 1015.7
20260501164029 62 234 2.6 5.2 0.00 0.00 0.00 43 1016.0
20260501163526 62 268 2.6 4.3 0.00 0.00 0.00 44 1016.1
20260501163023 62 204 2.6 4.3 0.00 0.00 0.00 44 1016.0
20260501162519 62 216 6.1 7.0 0.00 0.00 0.00 44 1016.2
20260501162016 62 235 3.5 5.2 0.00 0.00 0.00 43 1016.3
20260501161513 61 277 2.6 4.3 0.00 0.00 0.00 43 1016.2
20260501161010 62 253 7.0 7.8 0.00 0.00 0.00 43 1016.1
20260501160507 63 293 4.3 6.1 0.00 0.00 0.00 43 1016.1
20260501160004 62 201 0.9 1.7 0.00 0.00 0.00 44 1016.2
20260501155500 61 196 1.7 1.7 0.00 0.00 0.00 44 1016.4
20260501154957 60 250 3.5 5.2 0.00 0.00 0.00 46 1016.7
20260501154455 61 249 3.5 5.2 0.00 0.00 0.00 44 1016.6
20260501153951 61 168 1.7 1.7 0.00 0.00 0.00 43 1016.9
20260501153449 61 197 0.0 0.0 0.00 0.00 0.00 42 1017.0